Skip Page Navigation
NASA JPL Caltech
NASA Logo - Jet Propulsion Laboratory + View the NASA Portal
+ Center for Near-Earth Object Studies
JPL Home Earth Solar System Stars & Galaxies Technology
JPL Solar System Dynamics
BODIES ORBITS EPHEMERIDES TOOLS PHYSICAL DATA DISCOVERY FAQ SITE MAP
IMPORTANT: The SSD Announcement email list is now available. Major changes are coming in the near future, including possible hostname and/or URL changes. To be notified of such changes, subscribe to this email list.

Please visit this page for more details.


JPL Small-Body Database Browser
Search: [ help ]  
27537 (2000 HZ83)
Classification: Main-belt Asteroid          SPK-ID: 2027537
Ephemeris | Orbit Diagram | Orbital Elements | Mission Design | Physical Parameters | Discovery Circumstances | Close-Approach Data ]

[ show orbit diagram ]
Orbital Elements at Epoch 2458600.5 (2019-Apr-27.0) TDB
Reference: JPL 26 (heliocentric ecliptic J2000)
 Element Value Uncertainty (1-sigma)   Units 
e .1859374956454974 5.1552e-08  
a 3.085002486629658 2.094e-08 au
q 2.511384850205607 1.6214e-07 au
i 16.07312046192578 4.0753e-06 deg
node 112.5211025520966 1.9546e-05 deg
peri 71.02670434077987 2.261e-05 deg
M 192.9914513519919 1.2641e-05 deg
tp 2459518.659021175327
(2021-Oct-31.15902118)
7.4617e-05 TDB
period 1979.163643411855
5.42
2.0151e-05
5.517e-08
d
yr
n .1818950146938838 1.852e-09 deg/d
Q 3.658620123053709 2.4833e-08 au
  Orbit Determination Parameters
   # obs. used (total)      1244  
   data-arc span      8954 days (24.51 yr)  
   first obs. used      1995-05-29  
   last obs. used      2019-12-03  
   planetary ephem.      DE431  
   SB-pert. ephem.      SB431-N16  
   condition code      0  
   norm. resid. RMS      .51927  
   source      ORB  
   producer      Otto Matic  
   solution date      2019-Dec-14 01:39:16  

Additional Information
 Earth MOID = 1.57038 au 
 Jupiter MOID = 1.60993 au 
 T_jup = 3.141 
[ show covariance matrix ]

Ephemeris | Orbit Diagram | Orbital Elements | Mission Design | Physical Parameters | Discovery Circumstances | Close-Approach Data ]

Physical Parameter Table
Parameter Symbol Value Units Sigma Reference Notes
absolute magnitude H 13.2   n/a MPO416983  
diameter diameter 12.165 km 0.119 urn:nasa:pds:neowise_diameters_albedos::2.0[mainbelt] (http://adsabs.harvard.edu/abs/2011ApJ...741...68M)  
geometric albedo albedo 0.059   0.007 urn:nasa:pds:neowise_diameters_albedos::2.0[mainbelt] (http://adsabs.harvard.edu/abs/2011ApJ...741...68M)  

27537 (2000 HZ83)          Discovered 2000-Apr-30 by LONEOS at Anderson Mesa
Reference: 20010804/Numbers.arcLast Updated: 2004-04-19

[ hide close-approach data ]
Close-Approach Data   ...sorted by Date/Time (TDB)
Date/Time (TDB) Time Uncertainty
(days_HH:MM)
Body Nominal Distance (au) Minimum Distance (au) Maximum Distance (au) V-relative (km/s) V-infinity (km/s) JD (TDB) Time Uncertainty (minutes) Semi-major axis (km) Semi-minor axis (km) range-LOV angle (deg) N-sigma BP Orbit Ref. Reference Modified
1915-Aug-26 02:34 00:04 Jupiter 1.62356842333044 1.62356733195879 1.62356951471769 2.5761193496906 2.36494871864095 2420735.607200778 3.68823455340741 357.19848191515 66.0133002496102 70.9783497639112 1017561.87765494 T 26 CATAB v2.0f-lin.ifort 2019-Dec-14 01:39:29 2019-Dec-14 01:39
1976-Mar-30 21:53 00:02 Jupiter 1.7942608629666 1.794260016787 1.79426170914029 1.38657123926579 0.98915789810998 2442868.412100125 1.87288394015147 1033.43453704014 233.522442178039 -13.1141958954124 439100.401135394 T 26 CATAB v2.0f-lin.ifort 2019-Dec-14 01:39:29 2019-Dec-14 01:39
1985-Sep-12 22:31 < 00:01 Jupiter 1.72686197572204 1.72686128062852 1.72686267081604 4.04164735964438 3.91840748038284 2446321.438354540 0.909959517011642 127.340400532721 29.1682770311246 -84.581089451426 2673102.63581878 T 26 CATAB v2.0f-lin.ifort 2019-Dec-14 01:39:29 2019-Dec-14 01:39
2036-Aug-08 20:01 < 00:01 Jupiter 1.96476750559391 1.96476694144093 1.964768069747 4.077460400418 3.97032390003607 2464914.334128004 0.739684590346951 91.4118682670568 23.6411813460464 -83.7028098627061 2243191.86283272 T 26 CATAB v2.0f-lin.ifort 2019-Dec-14 01:39:29 2019-Dec-14 01:39
2045-Nov-23 20:45 00:01 Jupiter 1.62642858013005 1.62642791669894 1.62642924356162 2.81546677167742 2.62398162471613 2468308.364740329 1.21915379705734 148.182524844676 39.3986804833261 81.9757458390067 1477525.66125388 T 26 CATAB v2.0f-lin.ifort 2019-Dec-14 01:39:29 2019-Dec-14 01:39
2106-Jun-05 20:48 00:05 Jupiter 1.73265817945145 1.73265709061985 1.73265926870413 0.727961624483347 n/a 2490416.366907135 4.81539489919883 1784.19560984019 35.5932691003791 -88.6824918856769 7278392.31675817 F 26 CATAB v2.0f-lin.ifort 2019-Dec-14 01:39:29 2019-Dec-14 01:39
2115-Dec-18 01:26 00:03 Jupiter 1.82889702629148 1.82889483665026 1.82889921595287 4.30617617221283 4.19724758401768 2493898.559461015 3.28521821868544 343.712003581318 34.0176226629272 -73.9444728442363 2722659.27591136 T 26 CATAB v2.0f-lin.ifort 2019-Dec-14 01:39:29 2019-Dec-14 01:39
2166-Nov-12 06:45 00:05 Jupiter 1.8705369263214 1.87053485114313 1.87053900153827 3.60220044508648 3.47421957387964 2512490.781338646 5.25934545327552 464.262590566515 24.3881504723842 -82.8720288486604 1409183.74759363 T 26 CATAB v2.0f-lin.ifort 2019-Dec-14 01:39:29 2019-Dec-14 01:39
2176-Feb-24 20:48 00:06 Jupiter 1.65750657319097 1.65750563805524 1.65750750837777 3.05348390509672 2.88127050574851 2515882.366715429 5.70760062774384 653.629836528682 30.9307328734494 87.5218234237872 1632873.52249136 T 26 CATAB v2.0f-lin.ifort 2019-Dec-14 01:39:29 2019-Dec-14 01:39

Alternate Designations
 2000 HZ83 = 1995 KA3 = 1998 XX84 
Ephemeris | Orbit Diagram | Orbital Elements | Mission Design | Physical Parameters | Discovery Circumstances | Close-Approach Data ]
ABOUT SSD CREDITS/AWARDS PRIVACY/COPYRIGHT GLOSSARY LINKS
FirstGov 2020-Jan-23 02:08 UT
(server date/time)  
NASA Home Page
Site Manager:   Ryan S. Park
Webmaster  Alan B. Chamberlin